owner,sensor,date,latitude,longitude,air_temperature,qcFlag 
WAVCIS,ioos:station:WAVCIS:CSI16:1,2009-08-01T00:00:00Z,29.4012,-89.0355,28.12,11111222 
WAVCIS,ioos:station:WAVCIS:CSI16:1,2009-08-01T01:00:00Z,29.4012,-89.0355,27.6,11111222 
WAVCIS,ioos:station:WAVCIS:CSI16:1,2009-08-01T02:00:00Z,29.4012,-89.0355,27.43,11111222 
WAVCIS,ioos:station:WAVCIS:CSI16:1,2009-08-01T03:00:00Z,29.4012,-89.0355,27.76,11111222 
WAVCIS,ioos:station:WAVCIS:CSI16:1,2009-08-01T04:00:00Z,29.4012,-89.0355,27.76,11111222 
WAVCIS,ioos:station:WAVCIS:CSI16:1,2009-08-01T05:00:00Z,29.4012,-89.0355,27.56,11111222 
WAVCIS,ioos:station:WAVCIS:CSI16:1,2009-08-01T06:00:00Z,29.4012,-89.0355,27.62,11111222 
WAVCIS,ioos:station:WAVCIS:CSI16:1,2009-08-01T07:00:00Z,29.4012,-89.0355,27.41,11111222 
WAVCIS,ioos:station:WAVCIS:CSI16:1,2009-08-01T08:00:00Z,29.4012,-89.0355,27.29,11111222 
WAVCIS,ioos:station:WAVCIS:CSI16:1,2009-08-01T09:00:00Z,29.4012,-89.0355,27.34,11111222 
WAVCIS,ioos:station:WAVCIS:CSI16:1,2009-08-01T10:00:00Z,29.4012,-89.0355,27.1,11111222 
WAVCIS,ioos:station:WAVCIS:CSI16:1,2009-08-01T11:00:00Z,29.4012,-89.0355,27.03,11111222 
WAVCIS,ioos:station:WAVCIS:CSI16:1,2009-08-01T12:00:00Z,29.4012,-89.0355,26.4,11111222 
WAVCIS,ioos:station:WAVCIS:CSI16:1,2009-08-01T13:00:00Z,29.4012,-89.0355,27.25,11111222 
WAVCIS,ioos:station:WAVCIS:CSI16:1,2009-08-01T14:00:00Z,29.4012,-89.0355,26.59,11111222 
WAVCIS,ioos:station:WAVCIS:CSI16:1,2009-08-01T15:00:00Z,29.4012,-89.0355,29.13,11111222 
WAVCIS,ioos:station:WAVCIS:CSI16:1,2009-08-01T16:00:00Z,29.4012,-89.0355,26.92,11111222 
WAVCIS,ioos:station:WAVCIS:CSI16:1,2009-08-01T17:00:00Z,29.4012,-89.0355,27.82,11111222 
WAVCIS,ioos:station:WAVCIS:CSI16:1,2009-08-01T18:00:00Z,29.4012,-89.0355,28.51,11111222 
WAVCIS,ioos:station:WAVCIS:CSI16:1,2009-08-01T19:00:00Z,29.4012,-89.0355,28.8,11111222 
WAVCIS,ioos:station:WAVCIS:CSI16:1,2009-08-01T20:00:00Z,29.4012,-89.0355,28.72,11111222 
WAVCIS,ioos:station:WAVCIS:CSI16:1,2009-08-01T21:00:00Z,29.4012,-89.0355,28.7,11111222 
WAVCIS,ioos:station:WAVCIS:CSI16:1,2009-08-01T22:00:00Z,29.4012,-89.0355,29.37,11111222 
WAVCIS,ioos:station:WAVCIS:CSI16:1,2009-08-01T23:00:00Z,29.4012,-89.0355,29.15,11111222 
WAVCIS,ioos:station:WAVCIS:CSI16:1,2009-08-02T00:00:00Z,29.4012,-89.0355,28.97,11111222 
WAVCIS,ioos:station:WAVCIS:CSI16:1,2009-08-02T01:00:00Z,29.4012,-89.0355,28.46,11111222 
WAVCIS,ioos:station:WAVCIS:CSI16:1,2009-08-02T02:00:00Z,29.4012,-89.0355,28.07,11111222 
WAVCIS,ioos:station:WAVCIS:CSI16:1,2009-08-02T03:00:00Z,29.4012,-89.0355,27.84,11111222 
WAVCIS,ioos:station:WAVCIS:CSI16:1,2009-08-02T04:00:00Z,29.4012,-89.0355,27.53,11111222 
WAVCIS,ioos:station:WAVCIS:CSI16:1,2009-08-02T05:00:00Z,29.4012,-89.0355,27.46,11111222 
WAVCIS,ioos:station:WAVCIS:CSI16:1,2009-08-03T03:00:00Z,29.4012,-89.0355,26.76,11111222 
WAVCIS,ioos:station:WAVCIS:CSI16:1,2009-08-03T04:00:00Z,29.4012,-89.0355,26.5,11111222 
WAVCIS,ioos:station:WAVCIS:CSI16:1,2009-08-03T05:00:00Z,29.4012,-89.0355,26.6,11111222 
WAVCIS,ioos:station:WAVCIS:CSI16:1,2009-08-03T13:00:00Z,29.4012,-89.0355,27.71,11111222 
WAVCIS,ioos:station:WAVCIS:CSI16:1,2009-08-03T14:00:00Z,29.4012,-89.0355,28.25,11111222 
WAVCIS,ioos:station:WAVCIS:CSI16:1,2009-08-03T15:00:00Z,29.4012,-89.0355,27.81,11111222 
WAVCIS,ioos:station:WAVCIS:CSI16:1,2009-08-03T16:00:00Z,29.4012,-89.0355,27.8,11111222 
WAVCIS,ioos:station:WAVCIS:CSI16:1,2009-08-03T17:00:00Z,29.4012,-89.0355,28.22,11111222 
WAVCIS,ioos:station:WAVCIS:CSI16:1,2009-08-03T18:00:00Z,29.4012,-89.0355,28.4,11111222 
WAVCIS,ioos:station:WAVCIS:CSI16:1,2009-08-03T19:00:00Z,29.4012,-89.0355,29.07,11111222 
WAVCIS,ioos:station:WAVCIS:CSI16:1,2009-08-03T20:00:00Z,29.4012,-89.0355,29.27,11111222 
WAVCIS,ioos:station:WAVCIS:CSI16:1,2009-08-03T21:00:00Z,29.4012,-89.0355,30.16,11111222 
WAVCIS,ioos:station:WAVCIS:CSI16:1,2009-08-03T22:00:00Z,29.4012,-89.0355,30.19,11111222 
WAVCIS,ioos:station:WAVCIS:CSI16:1,2009-08-03T23:00:00Z,29.4012,-89.0355,29.32,11111222 
WAVCIS,ioos:station:WAVCIS:CSI16:1,2009-08-04T00:00:00Z,29.4012,-89.0355,28.92,11111222 
WAVCIS,ioos:station:WAVCIS:CSI16:1,2009-08-04T01:00:00Z,29.4012,-89.0355,28.58,11111222 
WAVCIS,ioos:station:WAVCIS:CSI16:1,2009-08-04T02:00:00Z,29.4012,-89.0355,28.66,11111222 
WAVCIS,ioos:station:WAVCIS:CSI16:1,2009-08-04T03:00:00Z,29.4012,-89.0355,28.65,11111222 
WAVCIS,ioos:station:WAVCIS:CSI16:1,2009-08-04T04:00:00Z,29.4012,-89.0355,28.38,11111222 
WAVCIS,ioos:station:WAVCIS:CSI16:1,2009-08-04T05:00:00Z,29.4012,-89.0355,28.36,11111222 
WAVCIS,ioos:station:WAVCIS:CSI16:1,2009-08-04T06:00:00Z,29.4012,-89.0355,28.24,11111222 
WAVCIS,ioos:station:WAVCIS:CSI16:1,2009-08-04T07:00:00Z,29.4012,-89.0355,28.08,11111222 
WAVCIS,ioos:station:WAVCIS:CSI16:1,2009-08-04T08:00:00Z,29.4012,-89.0355,27.91,11111222 
WAVCIS,ioos:station:WAVCIS:CSI16:1,2009-08-04T09:00:00Z,29.4012,-89.0355,27.84,11111222 
WAVCIS,ioos:station:WAVCIS:CSI16:1,2009-08-04T10:00:00Z,29.4012,-89.0355,27.78,11111222 
WAVCIS,ioos:station:WAVCIS:CSI16:1,2009-08-04T11:00:00Z,29.4012,-89.0355,27.65,11111222 
WAVCIS,ioos:station:WAVCIS:CSI16:1,2009-08-04T12:00:00Z,29.4012,-89.0355,27.5,11111222 
WAVCIS,ioos:station:WAVCIS:CSI16:1,2009-08-04T13:00:00Z,29.4012,-89.0355,28.13,11111222 
WAVCIS,ioos:station:WAVCIS:CSI16:1,2009-08-04T14:00:00Z,29.4012,-89.0355,29.11,11111222 
WAVCIS,ioos:station:WAVCIS:CSI16:1,2009-08-04T15:00:00Z,29.4012,-89.0355,28.84,11111222 
WAVCIS,ioos:station:WAVCIS:CSI16:1,2009-08-04T16:00:00Z,29.4012,-89.0355,30.0,11111222 
WAVCIS,ioos:station:WAVCIS:CSI16:1,2009-08-04T17:00:00Z,29.4012,-89.0355,29.2,11111222 
WAVCIS,ioos:station:WAVCIS:CSI16:1,2009-08-04T18:00:00Z,29.4012,-89.0355,29.45,11111222 
WAVCIS,ioos:station:WAVCIS:CSI16:1,2009-08-04T19:00:00Z,29.4012,-89.0355,29.73,11111222 
WAVCIS,ioos:station:WAVCIS:CSI16:1,2009-08-04T20:00:00Z,29.4012,-89.0355,30.24,11111222 
WAVCIS,ioos:station:WAVCIS:CSI16:1,2009-08-04T21:00:00Z,29.4012,-89.0355,30.42,11111222 
WAVCIS,ioos:station:WAVCIS:CSI16:1,2009-08-04T22:00:00Z,29.4012,-89.0355,30.12,11111222 
WAVCIS,ioos:station:WAVCIS:CSI16:1,2009-08-04T23:00:00Z,29.4012,-89.0355,30.24,11111222 
WAVCIS,ioos:station:WAVCIS:CSI16:1,2009-08-05T00:00:00Z,29.4012,-89.0355,30.18,11111222 
WAVCIS,ioos:station:WAVCIS:CSI16:1,2009-08-05T01:00:00Z,29.4012,-89.0355,29.38,11111222 
WAVCIS,ioos:station:WAVCIS:CSI16:1,2009-08-05T02:00:00Z,29.4012,-89.0355,29.27,11111222 
WAVCIS,ioos:station:WAVCIS:CSI16:1,2009-08-05T03:00:00Z,29.4012,-89.0355,29.06,11111222 
WAVCIS,ioos:station:WAVCIS:CSI16:1,2009-08-05T04:00:00Z,29.4012,-89.0355,29.11,11111222 
WAVCIS,ioos:station:WAVCIS:CSI16:1,2009-08-05T05:00:00Z,29.4012,-89.0355,28.86,11111222 
WAVCIS,ioos:station:WAVCIS:CSI16:1,2009-08-05T06:00:00Z,29.4012,-89.0355,28.68,11111222 
WAVCIS,ioos:station:WAVCIS:CSI16:1,2009-08-05T07:00:00Z,29.4012,-89.0355,28.46,11111222 
WAVCIS,ioos:station:WAVCIS:CSI16:1,2009-08-05T08:00:00Z,29.4012,-89.0355,28.21,11111222 
WAVCIS,ioos:station:WAVCIS:CSI16:1,2009-08-05T09:00:00Z,29.4012,-89.0355,28.29,11111222 
WAVCIS,ioos:station:WAVCIS:CSI16:1,2009-08-05T10:00:00Z,29.4012,-89.0355,28.24,11111222 
WAVCIS,ioos:station:WAVCIS:CSI16:1,2009-08-05T11:00:00Z,29.4012,-89.0355,28.1,11111222 
WAVCIS,ioos:station:WAVCIS:CSI16:1,2009-08-05T12:00:00Z,29.4012,-89.0355,28.18,11111222 
WAVCIS,ioos:station:WAVCIS:CSI16:1,2009-08-05T13:00:00Z,29.4012,-89.0355,28.45,11111222 
WAVCIS,ioos:station:WAVCIS:CSI16:1,2009-08-05T14:00:00Z,29.4012,-89.0355,28.48,11111222 
WAVCIS,ioos:station:WAVCIS:CSI16:1,2009-08-05T15:00:00Z,29.4012,-89.0355,28.04,11111222 
WAVCIS,ioos:station:WAVCIS:CSI16:1,2009-08-05T16:00:00Z,29.4012,-89.0355,32.98,11111222 
WAVCIS,ioos:station:WAVCIS:CSI16:1,2009-08-05T17:00:00Z,29.4012,-89.0355,29.28,11111222 
WAVCIS,ioos:station:WAVCIS:CSI16:1,2009-08-05T18:00:00Z,29.4012,-89.0355,29.82,11111222 
WAVCIS,ioos:station:WAVCIS:CSI16:1,2009-08-05T19:00:00Z,29.4012,-89.0355,28.83,11111222 
WAVCIS,ioos:station:WAVCIS:CSI16:1,2009-08-05T20:00:00Z,29.4012,-89.0355,29.9,11111222 
WAVCIS,ioos:station:WAVCIS:CSI16:1,2009-08-05T21:00:00Z,29.4012,-89.0355,29.26,11111222 
WAVCIS,ioos:station:WAVCIS:CSI16:1,2009-08-05T22:00:00Z,29.4012,-89.0355,30.26,11111222 
WAVCIS,ioos:station:WAVCIS:CSI16:1,2009-08-05T23:00:00Z,29.4012,-89.0355,30.53,11111222 
WAVCIS,ioos:station:WAVCIS:CSI16:1,2009-08-06T00:00:00Z,29.4012,-89.0355,30.56,11111222 
WAVCIS,ioos:station:WAVCIS:CSI16:1,2009-08-06T01:00:00Z,29.4012,-89.0355,29.78,11111222 
WAVCIS,ioos:station:WAVCIS:CSI16:1,2009-08-06T02:00:00Z,29.4012,-89.0355,29.6,11111222 
WAVCIS,ioos:station:WAVCIS:CSI16:1,2009-08-06T03:00:00Z,29.4012,-89.0355,24.52,11111222 
WAVCIS,ioos:station:WAVCIS:CSI16:1,2009-08-06T04:00:00Z,29.4012,-89.0355,25.57,11111222 
WAVCIS,ioos:station:WAVCIS:CSI16:1,2009-08-06T05:00:00Z,29.4012,-89.0355,26.06,11111222 
WAVCIS,ioos:station:WAVCIS:CSI16:1,2009-08-06T06:00:00Z,29.4012,-89.0355,25.53,11111222 
WAVCIS,ioos:station:WAVCIS:CSI16:1,2009-08-06T07:00:00Z,29.4012,-89.0355,25.71,11111222 
WAVCIS,ioos:station:WAVCIS:CSI16:1,2009-08-06T08:00:00Z,29.4012,-89.0355,25.35,11111222 
WAVCIS,ioos:station:WAVCIS:CSI16:1,2009-08-06T09:00:00Z,29.4012,-89.0355,25.47,11111222 
WAVCIS,ioos:station:WAVCIS:CSI16:1,2009-08-06T10:00:00Z,29.4012,-89.0355,25.63,11111222 
WAVCIS,ioos:station:WAVCIS:CSI16:1,2009-08-06T11:00:00Z,29.4012,-89.0355,25.91,11111222 
WAVCIS,ioos:station:WAVCIS:CSI16:1,2009-08-06T12:00:00Z,29.4012,-89.0355,26.54,11111222 
WAVCIS,ioos:station:WAVCIS:CSI16:1,2009-08-06T13:00:00Z,29.4012,-89.0355,27.06,11111222 
WAVCIS,ioos:station:WAVCIS:CSI16:1,2009-08-06T14:00:00Z,29.4012,-89.0355,27.2,11111222 
WAVCIS,ioos:station:WAVCIS:CSI16:1,2009-08-06T15:00:00Z,29.4012,-89.0355,27.28,11111222 
WAVCIS,ioos:station:WAVCIS:CSI16:1,2009-08-06T16:00:00Z,29.4012,-89.0355,27.47,11111222 
WAVCIS,ioos:station:WAVCIS:CSI16:1,2009-08-06T17:00:00Z,29.4012,-89.0355,27.32,11111222 
WAVCIS,ioos:station:WAVCIS:CSI16:1,2009-08-06T18:00:00Z,29.4012,-89.0355,27.73,11111222 
WAVCIS,ioos:station:WAVCIS:CSI16:1,2009-08-06T19:00:00Z,29.4012,-89.0355,32.13,11111222 
WAVCIS,ioos:station:WAVCIS:CSI16:1,2009-08-06T20:00:00Z,29.4012,-89.0355,29.16,11111222 
WAVCIS,ioos:station:WAVCIS:CSI16:1,2009-08-06T21:00:00Z,29.4012,-89.0355,28.86,11111222 
WAVCIS,ioos:station:WAVCIS:CSI16:1,2009-08-06T22:00:00Z,29.4012,-89.0355,29.1,11111222 
WAVCIS,ioos:station:WAVCIS:CSI16:1,2009-08-06T23:00:00Z,29.4012,-89.0355,29.37,11111222 
WAVCIS,ioos:station:WAVCIS:CSI16:1,2009-08-07T00:00:00Z,29.4012,-89.0355,28.9,11111222 
WAVCIS,ioos:station:WAVCIS:CSI16:1,2009-08-07T01:00:00Z,29.4012,-89.0355,28.67,11111222 
WAVCIS,ioos:station:WAVCIS:CSI16:1,2009-08-07T02:00:00Z,29.4012,-89.0355,28.75,11111222 
WAVCIS,ioos:station:WAVCIS:CSI16:1,2009-08-07T03:00:00Z,29.4012,-89.0355,28.57,11111222 
WAVCIS,ioos:station:WAVCIS:CSI16:1,2009-08-07T04:00:00Z,29.4012,-89.0355,28.42,11111222 
WAVCIS,ioos:station:WAVCIS:CSI16:1,2009-08-07T05:00:00Z,29.4012,-89.0355,28.41,11111222 
WAVCIS,ioos:station:WAVCIS:CSI16:1,2009-08-07T06:00:00Z,29.4012,-89.0355,28.33,11111222 
WAVCIS,ioos:station:WAVCIS:CSI16:1,2009-08-07T07:00:00Z,29.4012,-89.0355,28.27,11111222 
WAVCIS,ioos:station:WAVCIS:CSI16:1,2009-08-07T08:00:00Z,29.4012,-89.0355,27.52,11111222 
WAVCIS,ioos:station:WAVCIS:CSI16:1,2009-08-07T09:00:00Z,29.4012,-89.0355,27.55,11111222 
WAVCIS,ioos:station:WAVCIS:CSI16:1,2009-08-07T10:00:00Z,29.4012,-89.0355,27.52,11111222 
WAVCIS,ioos:station:WAVCIS:CSI16:1,2009-08-07T11:00:00Z,29.4012,-89.0355,27.49,11111222 
WAVCIS,ioos:station:WAVCIS:CSI16:1,2009-08-07T12:00:00Z,29.4012,-89.0355,27.51,11111222 
WAVCIS,ioos:station:WAVCIS:CSI16:1,2009-08-07T13:00:00Z,29.4012,-89.0355,27.74,11111222 
WAVCIS,ioos:station:WAVCIS:CSI16:1,2009-08-07T14:00:00Z,29.4012,-89.0355,30.51,11111222 
WAVCIS,ioos:station:WAVCIS:CSI16:1,2009-08-07T15:00:00Z,29.4012,-89.0355,27.48,11111222 
WAVCIS,ioos:station:WAVCIS:CSI16:1,2009-08-07T16:00:00Z,29.4012,-89.0355,31.3,11111222 
WAVCIS,ioos:station:WAVCIS:CSI16:1,2009-08-07T17:00:00Z,29.4012,-89.0355,34.35,11111222 
WAVCIS,ioos:station:WAVCIS:CSI16:1,2009-08-07T18:00:00Z,29.4012,-89.0355,33.02,11111222 
WAVCIS,ioos:station:WAVCIS:CSI16:1,2009-08-07T19:00:00Z,29.4012,-89.0355,29.27,11111222 
WAVCIS,ioos:station:WAVCIS:CSI16:1,2009-08-07T20:00:00Z,29.4012,-89.0355,28.86,11111222 
WAVCIS,ioos:station:WAVCIS:CSI16:1,2009-08-07T21:00:00Z,29.4012,-89.0355,29.02,11111222 
WAVCIS,ioos:station:WAVCIS:CSI16:1,2009-08-07T22:00:00Z,29.4012,-89.0355,29.67,11111222 
WAVCIS,ioos:station:WAVCIS:CSI16:1,2009-08-07T23:00:00Z,29.4012,-89.0355,28.37,11111222 
WAVCIS,ioos:station:WAVCIS:CSI16:1,2009-08-08T00:00:00Z,29.4012,-89.0355,28.48,11111222 
WAVCIS,ioos:station:WAVCIS:CSI16:1,2009-08-08T01:00:00Z,29.4012,-89.0355,28.06,11111222 
WAVCIS,ioos:station:WAVCIS:CSI16:1,2009-08-08T02:00:00Z,29.4012,-89.0355,28.15,11111222 
WAVCIS,ioos:station:WAVCIS:CSI16:1,2009-08-08T03:00:00Z,29.4012,-89.0355,28.27,11111222 
WAVCIS,ioos:station:WAVCIS:CSI16:1,2009-08-08T04:00:00Z,29.4012,-89.0355,28.34,11111222 
WAVCIS,ioos:station:WAVCIS:CSI16:1,2009-08-08T05:00:00Z,29.4012,-89.0355,28.25,11111222 
WAVCIS,ioos:station:WAVCIS:CSI16:1,2009-08-08T06:00:00Z,29.4012,-89.0355,28.48,11111222 
WAVCIS,ioos:station:WAVCIS:CSI16:1,2009-08-08T07:00:00Z,29.4012,-89.0355,28.01,11111222 
WAVCIS,ioos:station:WAVCIS:CSI16:1,2009-08-08T08:00:00Z,29.4012,-89.0355,26.44,11111222 
WAVCIS,ioos:station:WAVCIS:CSI16:1,2009-08-08T09:00:00Z,29.4012,-89.0355,25.35,11111222 
WAVCIS,ioos:station:WAVCIS:CSI16:1,2009-08-08T10:00:00Z,29.4012,-89.0355,28.13,11111222 
WAVCIS,ioos:station:WAVCIS:CSI16:1,2009-08-08T11:00:00Z,29.4012,-89.0355,27.87,11111222 
WAVCIS,ioos:station:WAVCIS:CSI16:1,2009-08-08T12:00:00Z,29.4012,-89.0355,27.98,11111222 
WAVCIS,ioos:station:WAVCIS:CSI16:1,2009-08-08T13:00:00Z,29.4012,-89.0355,28.32,11111222 
WAVCIS,ioos:station:WAVCIS:CSI16:1,2009-08-08T14:00:00Z,29.4012,-89.0355,28.69,11111222 
WAVCIS,ioos:station:WAVCIS:CSI16:1,2009-08-08T15:00:00Z,29.4012,-89.0355,27.55,11111222 
WAVCIS,ioos:station:WAVCIS:CSI16:1,2009-08-08T16:00:00Z,29.4012,-89.0355,27.81,11111222 
WAVCIS,ioos:station:WAVCIS:CSI16:1,2009-08-08T17:00:00Z,29.4012,-89.0355,27.67,11111222 
WAVCIS,ioos:station:WAVCIS:CSI16:1,2009-08-08T18:00:00Z,29.4012,-89.0355,28.42,11111222 
WAVCIS,ioos:station:WAVCIS:CSI16:1,2009-08-08T19:00:00Z,29.4012,-89.0355,28.58,11111222 
WAVCIS,ioos:station:WAVCIS:CSI16:1,2009-08-08T20:00:00Z,29.4012,-89.0355,31.92,11111222 
WAVCIS,ioos:station:WAVCIS:CSI16:1,2009-08-08T21:00:00Z,29.4012,-89.0355,28.12,11111222 
WAVCIS,ioos:station:WAVCIS:CSI16:1,2009-08-08T22:00:00Z,29.4012,-89.0355,29.66,11111222 
WAVCIS,ioos:station:WAVCIS:CSI16:1,2009-08-08T23:00:00Z,29.4012,-89.0355,26.31,11111222 
WAVCIS,ioos:station:WAVCIS:CSI16:1,2009-08-09T00:00:00Z,29.4012,-89.0355,26.81,11111222 
WAVCIS,ioos:station:WAVCIS:CSI16:1,2009-08-09T01:00:00Z,29.4012,-89.0355,27.47,11111222 
WAVCIS,ioos:station:WAVCIS:CSI16:1,2009-08-09T02:00:00Z,29.4012,-89.0355,27.84,11111222 
WAVCIS,ioos:station:WAVCIS:CSI16:1,2009-08-09T03:00:00Z,29.4012,-89.0355,28.08,11111222 
WAVCIS,ioos:station:WAVCIS:CSI16:1,2009-08-09T04:00:00Z,29.4012,-89.0355,28.34,11111222 
WAVCIS,ioos:station:WAVCIS:CSI16:1,2009-08-09T05:00:00Z,29.4012,-89.0355,28.31,11111222 
WAVCIS,ioos:station:WAVCIS:CSI16:1,2009-08-09T06:00:00Z,29.4012,-89.0355,28.39,11111222 
WAVCIS,ioos:station:WAVCIS:CSI16:1,2009-08-09T07:00:00Z,29.4012,-89.0355,28.4,11111222 
WAVCIS,ioos:station:WAVCIS:CSI16:1,2009-08-09T08:00:00Z,29.4012,-89.0355,28.39,11111222 
WAVCIS,ioos:station:WAVCIS:CSI16:1,2009-08-09T09:00:00Z,29.4012,-89.0355,28.22,11111222 
WAVCIS,ioos:station:WAVCIS:CSI16:1,2009-08-09T10:00:00Z,29.4012,-89.0355,28.36,11111222 
WAVCIS,ioos:station:WAVCIS:CSI16:1,2009-08-09T11:00:00Z,29.4012,-89.0355,28.38,11111222 
WAVCIS,ioos:station:WAVCIS:CSI16:1,2009-08-09T12:00:00Z,29.4012,-89.0355,27.58,11111222 
WAVCIS,ioos:station:WAVCIS:CSI16:1,2009-08-09T13:00:00Z,29.4012,-89.0355,28.39,11111222 
WAVCIS,ioos:station:WAVCIS:CSI16:1,2009-08-09T14:00:00Z,29.4012,-89.0355,28.88,11111222 
WAVCIS,ioos:station:WAVCIS:CSI16:1,2009-08-09T15:00:00Z,29.4012,-89.0355,29.2,11111222 
WAVCIS,ioos:station:WAVCIS:CSI16:1,2009-08-09T16:00:00Z,29.4012,-89.0355,28.1,11111222 
WAVCIS,ioos:station:WAVCIS:CSI16:1,2009-08-09T17:00:00Z,29.4012,-89.0355,28.85,11111222 
WAVCIS,ioos:station:WAVCIS:CSI16:1,2009-08-09T18:00:00Z,29.4012,-89.0355,28.95,11111222 
WAVCIS,ioos:station:WAVCIS:CSI16:1,2009-08-09T19:00:00Z,29.4012,-89.0355,29.02,11111222 
WAVCIS,ioos:station:WAVCIS:CSI16:1,2009-08-09T20:00:00Z,29.4012,-89.0355,29.14,11111222 
WAVCIS,ioos:station:WAVCIS:CSI16:1,2009-08-09T21:00:00Z,29.4012,-89.0355,29.26,11111222 
WAVCIS,ioos:station:WAVCIS:CSI16:1,2009-08-09T22:00:00Z,29.4012,-89.0355,29.66,11111222 
WAVCIS,ioos:station:WAVCIS:CSI16:1,2009-08-09T23:00:00Z,29.4012,-89.0355,29.3,11111222 
WAVCIS,ioos:station:WAVCIS:CSI16:1,2009-08-10T00:00:00Z,29.4012,-89.0355,29.31,11111222 
WAVCIS,ioos:station:WAVCIS:CSI16:1,2009-08-10T01:00:00Z,29.4012,-89.0355,28.73,11111222 
WAVCIS,ioos:station:WAVCIS:CSI16:1,2009-08-10T02:00:00Z,29.4012,-89.0355,28.34,11111222 
WAVCIS,ioos:station:WAVCIS:CSI16:1,2009-08-10T03:00:00Z,29.4012,-89.0355,28.46,11111222 
WAVCIS,ioos:station:WAVCIS:CSI16:1,2009-08-10T04:00:00Z,29.4012,-89.0355,28.78,11111222 
WAVCIS,ioos:station:WAVCIS:CSI16:1,2009-08-10T05:00:00Z,29.4012,-89.0355,28.72,11111222 
WAVCIS,ioos:station:WAVCIS:CSI16:1,2009-08-10T06:00:00Z,29.4012,-89.0355,28.65,11111222 
WAVCIS,ioos:station:WAVCIS:CSI16:1,2009-08-10T07:00:00Z,29.4012,-89.0355,28.68,11111222 
WAVCIS,ioos:station:WAVCIS:CSI16:1,2009-08-10T08:00:00Z,29.4012,-89.0355,28.64,11111222 
WAVCIS,ioos:station:WAVCIS:CSI16:1,2009-08-10T09:00:00Z,29.4012,-89.0355,28.72,11111222 
WAVCIS,ioos:station:WAVCIS:CSI16:1,2009-08-10T10:00:00Z,29.4012,-89.0355,28.16,11111222 
WAVCIS,ioos:station:WAVCIS:CSI16:1,2009-08-10T11:00:00Z,29.4012,-89.0355,27.55,11111222 
WAVCIS,ioos:station:WAVCIS:CSI16:1,2009-08-10T12:00:00Z,29.4012,-89.0355,28.1,11111222 
WAVCIS,ioos:station:WAVCIS:CSI16:1,2009-08-10T13:00:00Z,29.4012,-89.0355,30.7,11111222 
WAVCIS,ioos:station:WAVCIS:CSI16:1,2009-08-10T14:00:00Z,29.4012,-89.0355,31.63,11111222 
WAVCIS,ioos:station:WAVCIS:CSI16:1,2009-08-10T15:00:00Z,29.4012,-89.0355,30.67,11111222 
WAVCIS,ioos:station:WAVCIS:CSI16:1,2009-08-10T16:00:00Z,29.4012,-89.0355,27.36,11111222 
WAVCIS,ioos:station:WAVCIS:CSI16:1,2009-08-10T17:00:00Z,29.4012,-89.0355,28.05,11111222 
WAVCIS,ioos:station:WAVCIS:CSI16:1,2009-08-10T18:00:00Z,29.4012,-89.0355,30.34,11111222 
WAVCIS,ioos:station:WAVCIS:CSI16:1,2009-08-10T19:00:00Z,29.4012,-89.0355,29.67,11111222 
WAVCIS,ioos:station:WAVCIS:CSI16:1,2009-08-10T20:00:00Z,29.4012,-89.0355,30.16,11111222 
WAVCIS,ioos:station:WAVCIS:CSI16:1,2009-08-10T21:00:00Z,29.4012,-89.0355,30.34,11111222 
WAVCIS,ioos:station:WAVCIS:CSI16:1,2009-08-10T22:00:00Z,29.4012,-89.0355,29.55,11111222 
WAVCIS,ioos:station:WAVCIS:CSI16:1,2009-08-10T23:00:00Z,29.4012,-89.0355,30.47,11111222 
WAVCIS,ioos:station:WAVCIS:CSI16:1,2009-08-11T00:00:00Z,29.4012,-89.0355,29.63,11111222 
WAVCIS,ioos:station:WAVCIS:CSI16:1,2009-08-11T01:00:00Z,29.4012,-89.0355,29.0,11111222 
WAVCIS,ioos:station:WAVCIS:CSI16:1,2009-08-11T02:00:00Z,29.4012,-89.0355,28.93,11111222 
WAVCIS,ioos:station:WAVCIS:CSI16:1,2009-08-11T03:00:00Z,29.4012,-89.0355,28.87,11111222 
WAVCIS,ioos:station:WAVCIS:CSI16:1,2009-08-11T04:00:00Z,29.4012,-89.0355,28.76,11111222 
WAVCIS,ioos:station:WAVCIS:CSI16:1,2009-08-11T05:00:00Z,29.4012,-89.0355,28.7,11111222 
WAVCIS,ioos:station:WAVCIS:CSI16:1,2009-08-11T06:00:00Z,29.4012,-89.0355,28.72,11111222 
WAVCIS,ioos:station:WAVCIS:CSI16:1,2009-08-11T07:00:00Z,29.4012,-89.0355,28.69,11111222 
WAVCIS,ioos:station:WAVCIS:CSI16:1,2009-08-11T08:00:00Z,29.4012,-89.0355,28.68,11111222 
WAVCIS,ioos:station:WAVCIS:CSI16:1,2009-08-11T09:00:00Z,29.4012,-89.0355,28.44,11111222 
WAVCIS,ioos:station:WAVCIS:CSI16:1,2009-08-11T10:00:00Z,29.4012,-89.0355,28.15,11111222 
WAVCIS,ioos:station:WAVCIS:CSI16:1,2009-08-11T11:00:00Z,29.4012,-89.0355,28.06,11111222 
WAVCIS,ioos:station:WAVCIS:CSI16:1,2009-08-11T12:00:00Z,29.4012,-89.0355,27.98,11111222 
WAVCIS,ioos:station:WAVCIS:CSI16:1,2009-08-11T13:00:00Z,29.4012,-89.0355,28.7,11111222 
WAVCIS,ioos:station:WAVCIS:CSI16:1,2009-08-11T14:00:00Z,29.4012,-89.0355,29.03,11111222 
WAVCIS,ioos:station:WAVCIS:CSI16:1,2009-08-11T15:00:00Z,29.4012,-89.0355,28.65,11111222 
WAVCIS,ioos:station:WAVCIS:CSI16:1,2009-08-11T16:00:00Z,29.4012,-89.0355,30.08,11111222 
WAVCIS,ioos:station:WAVCIS:CSI16:1,2009-08-11T17:00:00Z,29.4012,-89.0355,28.94,11111222 
WAVCIS,ioos:station:WAVCIS:CSI16:1,2009-08-11T18:00:00Z,29.4012,-89.0355,29.65,11111222 
WAVCIS,ioos:station:WAVCIS:CSI16:1,2009-08-11T19:00:00Z,29.4012,-89.0355,30.42,11111222 
WAVCIS,ioos:station:WAVCIS:CSI16:1,2009-08-11T20:00:00Z,29.4012,-89.0355,30.28,11111222 
WAVCIS,ioos:station:WAVCIS:CSI16:1,2009-08-11T21:00:00Z,29.4012,-89.0355,29.94,11111222 
WAVCIS,ioos:station:WAVCIS:CSI16:1,2009-08-11T22:00:00Z,29.4012,-89.0355,30.24,11111222 
WAVCIS,ioos:station:WAVCIS:CSI16:1,2009-08-11T23:00:00Z,29.4012,-89.0355,30.12,11111222 
WAVCIS,ioos:station:WAVCIS:CSI16:1,2009-08-12T00:00:00Z,29.4012,-89.0355,27.45,11111222 
WAVCIS,ioos:station:WAVCIS:CSI16:1,2009-08-12T01:00:00Z,29.4012,-89.0355,33.7,11111222 
WAVCIS,ioos:station:WAVCIS:CSI16:1,2009-08-12T02:00:00Z,29.4012,-89.0355,32.95,11111222 
WAVCIS,ioos:station:WAVCIS:CSI16:1,2009-08-12T03:00:00Z,29.4012,-89.0355,30.57,11111222 
WAVCIS,ioos:station:WAVCIS:CSI16:1,2009-08-12T04:00:00Z,29.4012,-89.0355,28.87,11111222 
WAVCIS,ioos:station:WAVCIS:CSI16:1,2009-08-12T05:00:00Z,29.4012,-89.0355,28.67,11111222 
WAVCIS,ioos:station:WAVCIS:CSI16:1,2009-08-12T06:00:00Z,29.4012,-89.0355,28.68,11111222 
WAVCIS,ioos:station:WAVCIS:CSI16:1,2009-08-12T07:00:00Z,29.4012,-89.0355,28.59,11111222 
WAVCIS,ioos:station:WAVCIS:CSI16:1,2009-08-12T08:00:00Z,29.4012,-89.0355,28.67,11111222 
WAVCIS,ioos:station:WAVCIS:CSI16:1,2009-08-12T09:00:00Z,29.4012,-89.0355,28.16,11111222 
WAVCIS,ioos:station:WAVCIS:CSI16:1,2009-08-12T10:00:00Z,29.4012,-89.0355,28.0,11111222 
WAVCIS,ioos:station:WAVCIS:CSI16:1,2009-08-12T11:00:00Z,29.4012,-89.0355,27.41,11111222 
WAVCIS,ioos:station:WAVCIS:CSI16:1,2009-08-12T12:00:00Z,29.4012,-89.0355,27.23,11111222 
WAVCIS,ioos:station:WAVCIS:CSI16:1,2009-08-12T13:00:00Z,29.4012,-89.0355,28.62,11111222 
WAVCIS,ioos:station:WAVCIS:CSI16:1,2009-08-12T14:00:00Z,29.4012,-89.0355,29.94,11111222 
WAVCIS,ioos:station:WAVCIS:CSI16:1,2009-08-12T15:00:00Z,29.4012,-89.0355,29.86,11111222 
WAVCIS,ioos:station:WAVCIS:CSI16:1,2009-08-12T16:00:00Z,29.4012,-89.0355,28.84,11111222 
WAVCIS,ioos:station:WAVCIS:CSI16:1,2009-08-12T17:00:00Z,29.4012,-89.0355,27.93,11111222 
WAVCIS,ioos:station:WAVCIS:CSI16:1,2009-08-12T18:00:00Z,29.4012,-89.0355,24.44,11111222 
WAVCIS,ioos:station:WAVCIS:CSI16:1,2009-08-12T19:00:00Z,29.4012,-89.0355,23.76,11111222 
WAVCIS,ioos:station:WAVCIS:CSI16:1,2009-08-12T20:00:00Z,29.4012,-89.0355,23.65,11111222 
WAVCIS,ioos:station:WAVCIS:CSI16:1,2009-08-12T21:00:00Z,29.4012,-89.0355,24.43,11111222 
WAVCIS,ioos:station:WAVCIS:CSI16:1,2009-08-12T22:00:00Z,29.4012,-89.0355,25.26,11111222 
WAVCIS,ioos:station:WAVCIS:CSI16:1,2009-08-12T23:00:00Z,29.4012,-89.0355,25.98,11111222 
WAVCIS,ioos:station:WAVCIS:CSI16:1,2009-08-13T00:00:00Z,29.4012,-89.0355,26.26,11111222 
WAVCIS,ioos:station:WAVCIS:CSI16:1,2009-08-13T01:00:00Z,29.4012,-89.0355,25.75,11111222 
WAVCIS,ioos:station:WAVCIS:CSI16:1,2009-08-13T02:00:00Z,29.4012,-89.0355,26.0,11111222 
WAVCIS,ioos:station:WAVCIS:CSI16:1,2009-08-13T03:00:00Z,29.4012,-89.0355,26.36,11111222 
WAVCIS,ioos:station:WAVCIS:CSI16:1,2009-08-13T04:00:00Z,29.4012,-89.0355,26.58,11111222 
WAVCIS,ioos:station:WAVCIS:CSI16:1,2009-08-13T05:00:00Z,29.4012,-89.0355,26.78,11111222 
WAVCIS,ioos:station:WAVCIS:CSI16:1,2009-08-13T06:00:00Z,29.4012,-89.0355,26.53,11111222 
WAVCIS,ioos:station:WAVCIS:CSI16:1,2009-08-13T07:00:00Z,29.4012,-89.0355,26.6,11111222 
WAVCIS,ioos:station:WAVCIS:CSI16:1,2009-08-13T08:00:00Z,29.4012,-89.0355,26.62,11111222 